This is the latest recevied weather packets stored in our database for station/object KD7CIH. If no packets are shown the sender has not sent any weather packets the latest 10 day(s).
| Time | Temp. | Humidity | Pressure | Rain* | Wind** | Luminosity | Snow |
|---|---|---|---|---|---|---|---|
| 1788220267 | 21.67° C | 45% | 1015.2 hPa | 0.25 mm | - | - | - |
| 1788219969 | 21.67° C | 44% | 1015.3 hPa | 0.25 mm | - | - | - |
| 1788219667 | 21.67° C | 45% | 1015.2 hPa | 0.25 mm | - | - | - |
| 1788219368 | 21.67° C | 42% | 1015.2 hPa | 0.25 mm | - | - | - |
| 1788219066 | 21.67° C | 43% | 1015.2 hPa | 0.25 mm | - | - | - |
| 1788218767 | 21.67° C | 39% | 1015.2 hPa | 0.51 mm | - | - | - |
| 1788218465 | 21.67° C | 37% | 1015.2 hPa | 0.51 mm | - | - | - |
| 1788218166 | 21.11° C | 39% | 1015.2 hPa | 0.76 mm | - | - | - |
| 1788217992 | 21.11° C | 43% | 1015.3 hPa | 0.76 mm | - | - | - |
| 1788217565 | 21.11° C | 44% | 1015.4 hPa | 0.76 mm | - | - | - |
| 1788217394 | 21.11° C | 43% | 1015.5 hPa | 0.51 mm | - | - | - |
| 1788217093 | 20.56° C | 42% | 1015.3 hPa | 0.51 mm | - | - | - |
| 1788216664 | 20° C | 46% | 1015.3 hPa | 0.51 mm | - | - | - |
| 1788216358 | 20° C | 48% | 1015.4 hPa | 0.51 mm | - | - | - |
| 1788216054 | 19.44° C | 49% | 1015.4 hPa | 0.51 mm | - | - | - |
| 1788215752 | 19.44° C | 46% | 1015.3 hPa | 0.51 mm | - | - | - |
| 1788215452 | 20° C | 53% | 1015.3 hPa | 0.51 mm | - | - | - |
| 1788215153 | 19.44° C | 51% | 1015.3 hPa | 0.25 mm | - | - | - |
| 1788214853 | 21.11° C | 49% | 1015.2 hPa | 0.25 mm | - | - | - |
| 1788214554 | 23.33° C | 46% | 1015.2 hPa | 0 mm | - | - | - |
| 1788214252 | 23.89° C | 37% | 1014.9 hPa | 0 mm | - | - | - |
| 1788213950 | 23.89° C | 37% | 1014.8 hPa | 0 mm | - | - | - |
| 1788213650 | 24.44° C | 34% | 1014.8 hPa | 0 mm | - | - | - |
| 1788213476 | 24.44° C | 34% | 1014.8 hPa | 0 mm | - | - | - |
| 1788213049 | 25° C | 33% | 1014.9 hPa | 0 mm | - | - | - |
* Rain latest hour (hover to see other rain measurements)
** Current wind speed in m/s (hover to see current wind gust speed)